Location: Peterborough
(44.3091°N, 78.3197°W)
Time: 23:02:34
(UTC-05:00)

Tiros 1 despin weight - Pass Details

Date: 03 December 2023
Orbit: 581 x 624 km, 48.2° (Epoch: 28 February)

Event Time Altitude Azimuth Distance (km) Brightness Sun altitude
Rises 16:54:05 0° 178° (S) 2,796 ? -3.8°
Enters shadow 17:02:31 - 92° (E) 2,500 ? -5.2°
Exits shadow 17:37:14 -68° 35° (NE) 12,464 ? -10.9°
Reaches altitude 10° 18:35:08 10° 218° (SW) 1,894 ? -20.8°
Maximum altitude 18:39:15 44° 147° (SSE) 812 ? -21.6°
